Year,Month,Day,Hour,Minute,Value (Times are PST for temperature in C)
2014,06,13,00,00,10.50
2014,06,13,00,01,10.50
2014,06,13,00,02,10.50
2014,06,13,00,03,10.50
2014,06,13,00,04,10.60
2014,06,13,00,05,10.60
2014,06,13,00,06,10.60
2014,06,13,00,07,10.60
2014,06,13,00,08,10.60
2014,06,13,00,09,10.60
2014,06,13,00,10,10.60
2014,06,13,00,11,10.60
2014,06,13,00,12,10.60
2014,06,13,00,13,10.60
2014,06,13,00,14,10.60
2014,06,13,00,15,10.70
2014,06,13,00,16,10.70
2014,06,13,00,17,10.70
2014,06,13,00,18,10.70
2014,06,13,00,19,10.70
2014,06,13,00,20,10.70
2014,06,13,00,21,10.70
2014,06,13,00,22,10.70
2014,06,13,00,23,10.70
2014,06,13,00,24,10.70
2014,06,13,00,25,10.70
2014,06,13,00,26,10.70
2014,06,13,00,27,10.70
2014,06,13,00,28,10.70
2014,06,13,00,29,10.70
2014,06,13,00,30,10.70
2014,06,13,00,31,10.70
2014,06,13,00,32,10.80
2014,06,13,00,33,10.80
2014,06,13,00,34,10.80
2014,06,13,00,35,10.80
2014,06,13,00,36,10.80
2014,06,13,00,37,10.80
2014,06,13,00,38,10.80
2014,06,13,00,39,10.80
2014,06,13,00,40,10.80
2014,06,13,00,41,10.80
2014,06,13,00,42,10.80
2014,06,13,00,43,10.80
2014,06,13,00,44,10.80
2014,06,13,00,45,10.80
2014,06,13,00,46,10.80
2014,06,13,00,47,10.80
2014,06,13,00,48,10.80
2014,06,13,00,49,10.80
2014,06,13,00,50,10.80
2014,06,13,00,51,10.80
2014,06,13,00,52,10.80
2014,06,13,00,53,10.80
2014,06,13,00,54,10.80
2014,06,13,00,55,10.80
2014,06,13,00,56,10.80
2014,06,13,00,57,10.80
2014,06,13,00,58,10.80
2014,06,13,00,59,10.80
2014,06,13,01,00,10.80
2014,06,13,01,01,10.80
2014,06,13,01,02,10.80
2014,06,13,01,03,10.90
2014,06,13,01,04,10.90
2014,06,13,01,05,10.90
2014,06,13,01,06,10.90
2014,06,13,01,07,10.90
2014,06,13,01,08,10.90
2014,06,13,01,09,10.90
2014,06,13,01,10,10.90
2014,06,13,01,11,10.90
2014,06,13,01,12,10.90
2014,06,13,01,13,10.90
2014,06,13,01,14,10.90
2014,06,13,01,15,10.90
2014,06,13,01,16,10.90
2014,06,13,01,17,10.90
2014,06,13,01,18,10.90
2014,06,13,01,19,10.90
2014,06,13,01,20,10.90
2014,06,13,01,21,10.90
2014,06,13,01,22,10.90
2014,06,13,01,23,10.90
2014,06,13,01,24,10.90
2014,06,13,01,25,10.90
2014,06,13,01,26,10.90
2014,06,13,01,27,10.90
2014,06,13,01,28,10.90
2014,06,13,01,29,10.90
2014,06,13,01,30,10.90
2014,06,13,01,31,10.90
2014,06,13,01,32,10.90
2014,06,13,01,33,10.90
2014,06,13,01,34,10.90
2014,06,13,01,35,10.90
2014,06,13,01,36,10.80
2014,06,13,01,37,10.80
2014,06,13,01,38,10.80
2014,06,13,01,39,10.80
2014,06,13,01,40,10.80
2014,06,13,01,41,10.80
2014,06,13,01,42,10.90
2014,06,13,01,43,10.90
2014,06,13,01,44,10.90
2014,06,13,01,45,10.90
2014,06,13,01,46,10.90
2014,06,13,01,47,10.90
2014,06,13,01,48,10.90
2014,06,13,01,49,10.90
2014,06,13,01,50,10.90
2014,06,13,01,51,10.90
2014,06,13,01,52,10.90
2014,06,13,01,53,10.90
2014,06,13,01,54,10.90
2014,06,13,01,55,10.90
2014,06,13,01,56,10.90
2014,06,13,01,57,10.90
2014,06,13,01,58,10.90
2014,06,13,01,59,10.80
2014,06,13,02,00,10.80
2014,06,13,02,01,10.80
2014,06,13,02,02,10.80
2014,06,13,02,03,10.80
2014,06,13,02,04,10.80
2014,06,13,02,05,10.80
2014,06,13,02,06,10.80
2014,06,13,02,07,10.80
2014,06,13,02,08,10.80
2014,06,13,02,09,10.80
2014,06,13,02,10,10.80
2014,06,13,02,11,10.80
2014,06,13,02,12,10.70
2014,06,13,02,13,10.70
2014,06,13,02,14,10.70
2014,06,13,02,15,10.70
2014,06,13,02,16,10.70
2014,06,13,02,17,10.80
2014,06,13,02,18,10.80
2014,06,13,02,19,10.80
2014,06,13,02,20,10.80
2014,06,13,02,21,10.80
2014,06,13,02,22,10.80
2014,06,13,02,23,10.80
2014,06,13,02,24,10.80
2014,06,13,02,25,10.80
2014,06,13,02,26,10.80
2014,06,13,02,27,10.80
2014,06,13,02,28,10.80
2014,06,13,02,29,10.80
2014,06,13,02,30,10.80
2014,06,13,02,31,10.80
2014,06,13,02,32,10.80
2014,06,13,02,33,10.80
2014,06,13,02,34,10.80
2014,06,13,02,35,10.80
2014,06,13,02,36,10.80
2014,06,13,02,37,10.80
2014,06,13,02,38,10.80
2014,06,13,02,39,10.80
2014,06,13,02,40,10.80
2014,06,13,02,41,10.80
2014,06,13,02,42,10.80
2014,06,13,02,43,10.80
2014,06,13,02,44,10.80
2014,06,13,02,45,10.80
2014,06,13,02,46,10.80
2014,06,13,02,47,10.80
2014,06,13,02,48,10.80
2014,06,13,02,49,10.80
2014,06,13,02,50,10.80
2014,06,13,02,51,10.80
2014,06,13,02,52,10.80
2014,06,13,02,53,10.80
2014,06,13,02,54,10.80
2014,06,13,02,55,10.80
2014,06,13,02,56,10.80
2014,06,13,02,57,10.80
2014,06,13,02,58,10.80
2014,06,13,02,59,10.80
2014,06,13,03,00,10.80
2014,06,13,03,01,10.80
2014,06,13,03,02,10.80
2014,06,13,03,03,10.80
2014,06,13,03,04,10.80
2014,06,13,03,05,10.80
2014,06,13,03,06,10.80
2014,06,13,03,07,10.80
2014,06,13,03,08,10.80
2014,06,13,03,09,10.80
2014,06,13,03,10,10.80
2014,06,13,03,11,10.80
2014,06,13,03,12,10.80
2014,06,13,03,13,10.80
2014,06,13,03,14,10.80
2014,06,13,03,15,10.80
2014,06,13,03,16,10.80
2014,06,13,03,17,10.80
2014,06,13,03,18,10.80
2014,06,13,03,19,10.80
2014,06,13,03,20,10.80
2014,06,13,03,21,10.80
2014,06,13,03,22,10.80
2014,06,13,03,23,10.80
2014,06,13,03,24,10.80
2014,06,13,03,25,10.80
2014,06,13,03,26,10.80
2014,06,13,03,27,10.80
2014,06,13,03,28,10.80
2014,06,13,03,29,10.80
2014,06,13,03,30,10.80
2014,06,13,03,31,10.80
2014,06,13,03,32,10.80
2014,06,13,03,33,10.80
2014,06,13,03,34,10.80
2014,06,13,03,35,10.80
2014,06,13,03,36,10.80
2014,06,13,03,37,10.80
2014,06,13,03,38,10.80
2014,06,13,03,39,10.70
2014,06,13,03,40,10.70
2014,06,13,03,41,10.80
2014,06,13,03,42,10.80
2014,06,13,03,43,10.80
2014,06,13,03,44,10.70
2014,06,13,03,45,10.70
2014,06,13,03,46,10.70
2014,06,13,03,47,10.70
2014,06,13,03,48,10.70
2014,06,13,03,49,10.70
2014,06,13,03,50,10.70
2014,06,13,03,51,10.70
2014,06,13,03,52,10.80
2014,06,13,03,53,10.80
2014,06,13,03,54,10.80
2014,06,13,03,55,10.70
2014,06,13,03,56,10.70
2014,06,13,03,57,10.70
2014,06,13,03,58,10.70
2014,06,13,03,59,10.70
2014,06,13,04,00,10.70
2014,06,13,04,01,10.70
2014,06,13,04,02,10.70
2014,06,13,04,03,10.70
2014,06,13,04,04,10.70
2014,06,13,04,05,10.70
2014,06,13,04,06,10.80
2014,06,13,04,07,10.80
2014,06,13,04,08,10.80
2014,06,13,04,09,10.80
2014,06,13,04,10,10.70
2014,06,13,04,11,10.70
2014,06,13,04,12,10.70
2014,06,13,04,13,10.70
2014,06,13,04,14,10.70
2014,06,13,04,15,10.70
2014,06,13,04,16,10.70
2014,06,13,04,17,10.70
2014,06,13,04,18,10.70
2014,06,13,04,19,10.70
2014,06,13,04,20,10.70
2014,06,13,04,21,10.60
2014,06,13,04,22,10.60
2014,06,13,04,23,10.60
2014,06,13,04,24,10.60
2014,06,13,04,25,10.60
2014,06,13,04,26,10.60
2014,06,13,04,27,10.60
2014,06,13,04,28,10.60
2014,06,13,04,29,10.50
2014,06,13,04,30,10.50
2014,06,13,04,31,10.50
2014,06,13,04,32,10.50
2014,06,13,04,33,10.50
2014,06,13,04,34,10.50
2014,06,13,04,35,10.50
2014,06,13,04,36,10.50
2014,06,13,04,37,10.50
2014,06,13,04,38,10.50
2014,06,13,04,39,10.50
2014,06,13,04,40,10.50
2014,06,13,04,41,10.50
2014,06,13,04,42,10.50
2014,06,13,04,43,10.40
2014,06,13,04,44,10.40
2014,06,13,04,45,10.40
2014,06,13,04,46,10.50
2014,06,13,04,47,10.50
2014,06,13,04,48,10.50
2014,06,13,04,49,10.50
2014,06,13,04,50,10.50
2014,06,13,04,51,10.50
2014,06,13,04,52,10.40
2014,06,13,04,53,10.40
2014,06,13,04,54,10.40
2014,06,13,04,55,10.40
2014,06,13,04,56,10.40
2014,06,13,04,57,10.40
2014,06,13,04,58,10.40
2014,06,13,04,59,10.40
2014,06,13,05,00,10.40
2014,06,13,05,01,10.40
2014,06,13,05,02,10.30
2014,06,13,05,03,10.30
2014,06,13,05,04,10.30
2014,06,13,05,05,10.30
2014,06,13,05,06,10.30
2014,06,13,05,07,10.30
2014,06,13,05,08,10.30
2014,06,13,05,09,10.30
2014,06,13,05,10,10.30
2014,06,13,05,11,10.20
2014,06,13,05,12,10.20
2014,06,13,05,13,10.20
2014,06,13,05,14,10.20
2014,06,13,05,15,10.20
2014,06,13,05,16,10.20
2014,06,13,05,17,10.20
2014,06,13,05,18,10.20
2014,06,13,05,19,10.20
2014,06,13,05,20,10.20
2014,06,13,05,21,10.10
2014,06,13,05,22,10.10
2014,06,13,05,23,10.10
2014,06,13,05,24,10.10
2014,06,13,05,25,10.10
2014,06,13,05,26,10.10
2014,06,13,05,27,10.10
2014,06,13,05,28,10.10
2014,06,13,05,29,10.00
2014,06,13,05,30,10.00
2014,06,13,05,31,10.00
2014,06,13,05,32,10.00
2014,06,13,05,33,10.00
2014,06,13,05,34,10.00
2014,06,13,05,35,10.00
2014,06,13,05,36,10.00
2014,06,13,05,37,10.00
2014,06,13,05,38,9.90
2014,06,13,05,39,9.90
2014,06,13,05,40,9.90
2014,06,13,05,41,9.90
2014,06,13,05,42,9.90
2014,06,13,05,43,9.90
2014,06,13,05,44,9.90
2014,06,13,05,45,9.90
2014,06,13,05,46,9.90
2014,06,13,05,47,9.90
2014,06,13,05,48,9.90
2014,06,13,05,49,9.90
2014,06,13,05,50,9.90
2014,06,13,05,51,9.90
2014,06,13,05,52,9.90
2014,06,13,05,53,9.90
2014,06,13,05,54,9.90
2014,06,13,05,55,9.90
2014,06,13,05,56,9.90
2014,06,13,05,57,9.90
2014,06,13,05,58,9.90
2014,06,13,05,59,9.80
2014,06,13,06,00,9.80
2014,06,13,06,01,9.80
2014,06,13,06,02,9.80
2014,06,13,06,03,9.80
2014,06,13,06,04,9.80
2014,06,13,06,05,9.80
2014,06,13,06,06,9.80
2014,06,13,06,07,9.80
2014,06,13,06,08,9.80
2014,06,13,06,09,9.80
2014,06,13,06,10,9.80
2014,06,13,06,11,9.70
2014,06,13,06,12,9.70
2014,06,13,06,13,9.70
2014,06,13,06,14,9.70
2014,06,13,06,15,9.70
2014,06,13,06,16,9.70
2014,06,13,06,17,9.70
2014,06,13,06,18,9.80
2014,06,13,06,19,9.80
2014,06,13,06,20,9.80
2014,06,13,06,21,9.80
2014,06,13,06,22,9.80
2014,06,13,06,23,9.80
2014,06,13,06,24,9.80
2014,06,13,06,25,9.80
2014,06,13,06,26,9.80
2014,06,13,06,27,9.80
2014,06,13,06,28,9.80
2014,06,13,06,29,9.80
2014,06,13,06,30,9.80
2014,06,13,06,31,9.80
2014,06,13,06,32,9.80
2014,06,13,06,33,9.70
2014,06,13,06,34,9.80
2014,06,13,06,35,9.80
2014,06,13,06,36,9.80
2014,06,13,06,37,9.80
2014,06,13,06,38,9.70
2014,06,13,06,39,9.70
2014,06,13,06,40,9.70
2014,06,13,06,41,9.70
2014,06,13,06,42,9.70
2014,06,13,06,43,9.70
2014,06,13,06,44,9.70
2014,06,13,06,45,9.70
2014,06,13,06,46,9.70
2014,06,13,06,47,9.70
2014,06,13,06,48,9.70
2014,06,13,06,49,9.70
2014,06,13,06,50,9.70
2014,06,13,06,51,9.70
2014,06,13,06,52,9.70
2014,06,13,06,53,9.70
2014,06,13,06,54,9.70
2014,06,13,06,55,9.70
2014,06,13,06,56,9.70
2014,06,13,06,57,9.80
2014,06,13,06,58,9.80
2014,06,13,06,59,9.80
2014,06,13,07,00,9.80
2014,06,13,07,01,9.80
2014,06,13,07,02,9.80
2014,06,13,07,03,9.90
2014,06,13,07,04,9.90
2014,06,13,07,05,9.90
2014,06,13,07,06,9.90
2014,06,13,07,07,10.00
2014,06,13,07,08,10.00
2014,06,13,07,09,10.00
2014,06,13,07,10,10.10
2014,06,13,07,11,10.10
2014,06,13,07,12,10.10
2014,06,13,07,13,10.10
2014,06,13,07,14,10.10
2014,06,13,07,15,10.10
2014,06,13,07,16,10.10
2014,06,13,07,17,10.10
2014,06,13,07,18,10.10
2014,06,13,07,19,10.10
2014,06,13,07,20,10.10
2014,06,13,07,21,10.10
2014,06,13,07,22,10.10
2014,06,13,07,23,10.20
2014,06,13,07,24,10.20
2014,06,13,07,25,10.20
2014,06,13,07,26,10.20
2014,06,13,07,27,10.20
2014,06,13,07,28,10.20
2014,06,13,07,29,10.20
2014,06,13,07,30,10.20
2014,06,13,07,31,10.20
2014,06,13,07,32,10.20
2014,06,13,07,33,10.30
2014,06,13,07,34,10.30
2014,06,13,07,35,10.30
2014,06,13,07,36,10.40
2014,06,13,07,37,10.40
2014,06,13,07,38,10.50
2014,06,13,07,39,10.50
2014,06,13,07,40,10.60
2014,06,13,07,41,10.60
2014,06,13,07,42,10.70
2014,06,13,07,43,10.70
2014,06,13,07,44,10.70
2014,06,13,07,45,10.80
2014,06,13,07,46,10.80
2014,06,13,07,47,10.80
2014,06,13,07,48,10.90
2014,06,13,07,49,10.90
2014,06,13,07,50,11.00
2014,06,13,07,51,11.00
2014,06,13,07,52,11.00
2014,06,13,07,53,11.10
2014,06,13,07,54,11.10
2014,06,13,07,55,11.20
2014,06,13,07,56,11.20
2014,06,13,07,57,11.30
2014,06,13,07,58,11.40
2014,06,13,07,59,11.40
2014,06,13,08,00,11.50
2014,06,13,08,01,11.50
2014,06,13,08,02,11.60
2014,06,13,08,03,11.70
2014,06,13,08,04,11.80
2014,06,13,08,05,12.00
2014,06,13,08,06,12.10
2014,06,13,08,07,12.20
2014,06,13,08,08,12.30
2014,06,13,08,09,12.30
2014,06,13,08,10,12.40
2014,06,13,08,11,12.40
2014,06,13,08,12,12.50
2014,06,13,08,13,12.50
2014,06,13,08,14,12.50
2014,06,13,08,15,12.60
2014,06,13,08,16,12.60
2014,06,13,08,17,12.60
2014,06,13,08,18,12.70
2014,06,13,08,19,12.70
2014,06,13,08,20,12.80
2014,06,13,08,21,12.80
2014,06,13,08,22,12.90
2014,06,13,08,23,12.90
2014,06,13,08,24,13.00
2014,06,13,08,25,13.10
2014,06,13,08,26,13.20
2014,06,13,08,27,13.20
2014,06,13,08,28,13.30
2014,06,13,08,29,13.30
2014,06,13,08,30,13.30
2014,06,13,08,31,13.30
2014,06,13,08,32,13.30
2014,06,13,08,33,13.30
2014,06,13,08,34,13.30
2014,06,13,08,35,13.20
2014,06,13,08,36,13.20
2014,06,13,08,37,13.20
2014,06,13,08,38,13.20
2014,06,13,08,39,13.20
2014,06,13,08,40,13.20
2014,06,13,08,41,13.20
2014,06,13,08,42,13.20
2014,06,13,08,43,13.30
2014,06,13,08,44,13.30
2014,06,13,08,45,13.30
2014,06,13,08,46,13.40
2014,06,13,08,47,13.40
2014,06,13,08,48,13.50
2014,06,13,08,49,13.50
2014,06,13,08,50,13.60
2014,06,13,08,51,13.60
2014,06,13,08,52,13.60
2014,06,13,08,53,13.70
2014,06,13,08,54,13.70
2014,06,13,08,55,13.70
2014,06,13,08,56,13.80
2014,06,13,08,57,13.80
2014,06,13,08,58,13.90
2014,06,13,08,59,14.00
2014,06,13,09,00,14.10
2014,06,13,09,01,14.20
2014,06,13,09,02,14.30
2014,06,13,09,03,14.30
2014,06,13,09,04,14.30
2014,06,13,09,05,14.40
2014,06,13,09,06,14.40
2014,06,13,09,07,14.50
2014,06,13,09,08,14.50
2014,06,13,09,09,14.50
2014,06,13,09,10,14.40
2014,06,13,09,11,14.40
2014,06,13,09,12,14.40
2014,06,13,09,13,14.30
2014,06,13,09,14,14.30
2014,06,13,09,15,14.30
2014,06,13,09,16,14.30
2014,06,13,09,17,14.40
2014,06,13,09,18,14.40
2014,06,13,09,19,14.40
2014,06,13,09,20,14.40
2014,06,13,09,21,14.50
2014,06,13,09,22,14.60
2014,06,13,09,23,14.70
2014,06,13,09,24,14.80
2014,06,13,09,25,14.90
2014,06,13,09,26,15.00
2014,06,13,09,27,15.10
2014,06,13,09,28,15.20
2014,06,13,09,29,15.30
2014,06,13,09,30,15.40
2014,06,13,09,31,15.50
2014,06,13,09,32,15.60
2014,06,13,09,33,15.60
2014,06,13,09,34,15.70
2014,06,13,09,35,15.80
2014,06,13,09,36,15.80
2014,06,13,09,37,15.90
2014,06,13,09,38,15.90
2014,06,13,09,39,15.90
2014,06,13,09,40,16.00
2014,06,13,09,41,16.00
2014,06,13,09,42,16.10
2014,06,13,09,43,16.20
2014,06,13,09,44,16.20
2014,06,13,09,45,16.20
2014,06,13,09,46,16.20
2014,06,13,09,47,16.30
2014,06,13,09,48,16.30
2014,06,13,09,49,16.30
2014,06,13,09,50,16.30
2014,06,13,09,51,16.30
2014,06,13,09,52,16.30
2014,06,13,09,53,16.30
2014,06,13,09,54,16.40
2014,06,13,09,55,16.50
2014,06,13,09,56,16.50
2014,06,13,09,57,16.60
2014,06,13,09,58,16.60
2014,06,13,09,59,16.60
2014,06,13,10,00,16.70
2014,06,13,10,01,16.70
2014,06,13,10,02,16.60
2014,06,13,10,03,16.60
2014,06,13,10,04,16.70
2014,06,13,10,05,16.70
2014,06,13,10,06,16.70
2014,06,13,10,07,16.70
2014,06,13,10,08,16.70
2014,06,13,10,09,16.70
2014,06,13,10,10,16.70
2014,06,13,10,11,16.60
2014,06,13,10,12,16.70
2014,06,13,10,13,16.70
2014,06,13,10,14,16.70
2014,06,13,10,15,16.80
2014,06,13,10,16,16.80
2014,06,13,10,17,16.80
2014,06,13,10,18,16.80
2014,06,13,10,19,16.80
2014,06,13,10,20,16.80
2014,06,13,10,21,16.80
2014,06,13,10,22,16.90
2014,06,13,10,23,16.90
2014,06,13,10,24,17.00
2014,06,13,10,25,17.00
2014,06,13,10,26,17.00
2014,06,13,10,27,17.00
2014,06,13,10,28,17.00
2014,06,13,10,29,17.00
2014,06,13,10,30,17.00
2014,06,13,10,31,17.10
2014,06,13,10,32,17.20
2014,06,13,10,33,17.20
2014,06,13,10,34,17.30
2014,06,13,10,35,17.40
2014,06,13,10,36,17.40
2014,06,13,10,37,17.50
2014,06,13,10,38,17.50
2014,06,13,10,39,17.50
2014,06,13,10,40,17.50
2014,06,13,10,41,17.50
2014,06,13,10,42,17.50
2014,06,13,10,43,17.50
2014,06,13,10,44,17.50
2014,06,13,10,45,17.40
2014,06,13,10,46,17.40
2014,06,13,10,47,17.50
2014,06,13,10,48,17.60
2014,06,13,10,49,17.60
2014,06,13,10,50,17.60
2014,06,13,10,51,17.70
2014,06,13,10,52,17.80
2014,06,13,10,53,17.90
2014,06,13,10,54,18.00
2014,06,13,10,55,18.00
2014,06,13,10,56,18.10
2014,06,13,10,57,18.10
2014,06,13,10,58,18.20
2014,06,13,10,59,18.30
2014,06,13,11,00,18.40
2014,06,13,11,01,18.50
2014,06,13,11,02,18.50
2014,06,13,11,03,18.60
2014,06,13,11,04,18.60
2014,06,13,11,05,18.60
2014,06,13,11,06,18.60
2014,06,13,11,07,18.70
2014,06,13,11,08,18.80
2014,06,13,11,09,18.80
2014,06,13,11,10,18.70
2014,06,13,11,11,18.70
2014,06,13,11,12,18.70
2014,06,13,11,13,18.70
2014,06,13,11,14,18.70
2014,06,13,11,15,18.70
2014,06,13,11,16,18.70
2014,06,13,11,17,18.60
2014,06,13,11,18,18.60
2014,06,13,11,19,18.60
2014,06,13,11,20,18.70
2014,06,13,11,21,18.70
2014,06,13,11,22,18.70
2014,06,13,11,23,18.80
2014,06,13,11,24,18.80
2014,06,13,11,25,18.90
2014,06,13,11,26,18.90
2014,06,13,11,27,18.90
2014,06,13,11,28,19.00
2014,06,13,11,29,19.00
2014,06,13,11,30,19.10
2014,06,13,11,31,19.20
2014,06,13,11,32,19.30
2014,06,13,11,33,19.40
2014,06,13,11,34,19.40
2014,06,13,11,35,19.40
2014,06,13,11,36,19.40
2014,06,13,11,37,19.40
2014,06,13,11,38,19.30
2014,06,13,11,39,19.30
2014,06,13,11,40,19.30
2014,06,13,11,41,19.30
2014,06,13,11,42,19.30
2014,06,13,11,43,19.40
2014,06,13,11,44,19.50
2014,06,13,11,45,19.60
2014,06,13,11,46,19.70
2014,06,13,11,47,19.70
2014,06,13,11,48,19.70
2014,06,13,11,49,19.70
2014,06,13,11,50,19.70
2014,06,13,11,51,19.70
2014,06,13,11,52,19.80
2014,06,13,11,53,19.80
2014,06,13,11,54,19.80
2014,06,13,11,55,19.90
2014,06,13,11,56,20.00
2014,06,13,11,57,20.10
2014,06,13,11,58,20.10
2014,06,13,11,59,20.20
2014,06,13,12,00,20.20
2014,06,13,12,01,20.10
2014,06,13,12,02,20.10
2014,06,13,12,03,20.10
2014,06,13,12,04,20.10
2014,06,13,12,05,20.10
2014,06,13,12,06,20.10
2014,06,13,12,07,20.20
2014,06,13,12,08,20.20
2014,06,13,12,09,20.20
2014,06,13,12,10,20.30
2014,06,13,12,11,20.40
2014,06,13,12,12,20.40
2014,06,13,12,13,20.40
2014,06,13,12,14,20.40
2014,06,13,12,15,20.50
2014,06,13,12,16,20.50
2014,06,13,12,17,20.60
2014,06,13,12,18,20.70
2014,06,13,12,19,20.80
2014,06,13,12,20,20.80
2014,06,13,12,21,20.80
2014,06,13,12,22,20.80
2014,06,13,12,23,20.80
2014,06,13,12,24,20.80
2014,06,13,12,25,20.80
2014,06,13,12,26,20.80
2014,06,13,12,27,20.80
2014,06,13,12,28,20.80
2014,06,13,12,29,20.80
2014,06,13,12,30,20.90
2014,06,13,12,31,21.00
2014,06,13,12,32,21.00
2014,06,13,12,33,21.00
2014,06,13,12,34,21.00
2014,06,13,12,35,21.00
2014,06,13,12,36,21.10
2014,06,13,12,37,21.10
2014,06,13,12,38,21.20
2014,06,13,12,39,21.30
2014,06,13,12,40,21.30
2014,06,13,12,41,21.30
2014,06,13,12,42,21.40
2014,06,13,12,43,21.50
2014,06,13,12,44,21.60
2014,06,13,12,45,21.70
2014,06,13,12,46,21.70
2014,06,13,12,47,21.80
2014,06,13,12,48,21.90
2014,06,13,12,49,21.80
2014,06,13,12,50,21.80
2014,06,13,12,51,21.80
2014,06,13,12,52,21.70
2014,06,13,12,53,21.70
2014,06,13,12,54,21.80
2014,06,13,12,55,21.80
2014,06,13,12,56,21.90
2014,06,13,12,57,22.00
2014,06,13,12,58,22.10
2014,06,13,12,59,22.20
2014,06,13,13,00,22.30
2014,06,13,13,01,22.50
2014,06,13,13,02,22.50
2014,06,13,13,03,22.40
2014,06,13,13,04,22.40
2014,06,13,13,05,22.50
2014,06,13,13,06,22.70
2014,06,13,13,07,22.80
2014,06,13,13,08,22.90
2014,06,13,13,09,22.90
2014,06,13,13,10,23.00
2014,06,13,13,11,23.10
2014,06,13,13,12,23.10
2014,06,13,13,13,23.10
2014,06,13,13,14,23.10
2014,06,13,13,15,23.10
2014,06,13,13,16,23.10
2014,06,13,13,17,23.10
2014,06,13,13,18,23.10
2014,06,13,13,19,23.10
2014,06,13,13,20,23.00
2014,06,13,13,21,23.00
2014,06,13,13,22,23.00
2014,06,13,13,23,23.00
2014,06,13,13,24,22.90
2014,06,13,13,25,22.80
2014,06,13,13,26,22.60
2014,06,13,13,27,22.50
2014,06,13,13,28,22.40
2014,06,13,13,29,22.40
2014,06,13,13,30,22.50
2014,06,13,13,31,22.60
2014,06,13,13,32,22.70
2014,06,13,13,33,22.80
2014,06,13,13,34,22.90
2014,06,13,13,35,23.10
2014,06,13,13,36,23.30
2014,06,13,13,37,23.40
2014,06,13,13,38,23.40
2014,06,13,13,39,23.40
2014,06,13,13,40,23.40
2014,06,13,13,41,23.40
2014,06,13,13,42,23.40
2014,06,13,13,43,23.40
2014,06,13,13,44,23.40
2014,06,13,13,45,23.40
2014,06,13,13,46,23.50
2014,06,13,13,47,23.60
2014,06,13,13,48,23.70
2014,06,13,13,49,23.80
2014,06,13,13,50,23.90
2014,06,13,13,51,24.00
2014,06,13,13,52,24.10
2014,06,13,13,53,24.20
2014,06,13,13,54,24.20
2014,06,13,13,55,24.20
2014,06,13,13,56,24.30
2014,06,13,13,57,24.30
2014,06,13,13,58,24.30
2014,06,13,13,59,24.20
2014,06,13,14,00,24.10
2014,06,13,14,01,23.90
2014,06,13,14,02,23.70
2014,06,13,14,03,23.60
2014,06,13,14,04,23.60
2014,06,13,14,05,23.50
2014,06,13,14,06,23.50
2014,06,13,14,07,23.50
2014,06,13,14,08,23.50
2014,06,13,14,09,23.60
2014,06,13,14,10,23.70
2014,06,13,14,11,23.80
2014,06,13,14,12,23.80
2014,06,13,14,13,23.90
2014,06,13,14,14,23.90
2014,06,13,14,15,24.00
2014,06,13,14,16,24.00
2014,06,13,14,17,23.90
2014,06,13,14,18,23.90
2014,06,13,14,19,23.80
2014,06,13,14,20,23.70
2014,06,13,14,21,23.70
2014,06,13,14,22,23.70
2014,06,13,14,23,23.80
2014,06,13,14,24,23.80
2014,06,13,14,25,23.80
2014,06,13,14,26,23.80
2014,06,13,14,27,23.80
2014,06,13,14,28,23.80
2014,06,13,14,29,23.80
2014,06,13,14,30,23.80
2014,06,13,14,31,23.90
2014,06,13,14,32,24.00
2014,06,13,14,33,24.10
2014,06,13,14,34,24.30
2014,06,13,14,35,24.30
2014,06,13,14,36,24.40
2014,06,13,14,37,24.50
2014,06,13,14,38,24.50
2014,06,13,14,39,24.40
2014,06,13,14,40,24.30
2014,06,13,14,41,24.30
2014,06,13,14,42,24.30
2014,06,13,14,43,24.20
2014,06,13,14,44,24.20
2014,06,13,14,45,24.20
2014,06,13,14,46,24.20
2014,06,13,14,47,24.20
2014,06,13,14,48,24.20
2014,06,13,14,49,24.20
2014,06,13,14,50,24.30
2014,06,13,14,51,24.40
2014,06,13,14,52,24.50
2014,06,13,14,53,24.50
2014,06,13,14,54,24.40
2014,06,13,14,55,24.40
2014,06,13,14,56,24.40
2014,06,13,14,57,24.50
2014,06,13,14,58,24.60
2014,06,13,14,59,24.70
2014,06,13,15,00,24.70
2014,06,13,15,01,24.70
2014,06,13,15,02,24.70
2014,06,13,15,03,24.70
2014,06,13,15,04,24.70
2014,06,13,15,05,24.70
2014,06,13,15,06,24.70
2014,06,13,15,07,24.70
2014,06,13,15,08,24.80
2014,06,13,15,09,25.00
2014,06,13,15,10,25.10
2014,06,13,15,11,25.10
2014,06,13,15,12,24.90
2014,06,13,15,13,24.80
2014,06,13,15,14,24.80
2014,06,13,15,15,24.80
2014,06,13,15,16,24.90
2014,06,13,15,17,25.00
2014,06,13,15,18,25.10
2014,06,13,15,19,25.10
2014,06,13,15,20,25.10
2014,06,13,15,21,25.10
2014,06,13,15,22,25.20
2014,06,13,15,23,25.20
2014,06,13,15,24,25.20
2014,06,13,15,25,25.10
2014,06,13,15,26,25.00
2014,06,13,15,27,25.00
2014,06,13,15,28,24.90
2014,06,13,15,29,24.80
2014,06,13,15,30,24.80
2014,06,13,15,31,24.70
2014,06,13,15,32,24.80
2014,06,13,15,33,24.90
2014,06,13,15,34,24.90
2014,06,13,15,35,24.90
2014,06,13,15,36,24.90
2014,06,13,15,37,24.80
2014,06,13,15,38,24.80
2014,06,13,15,39,24.80
2014,06,13,15,40,24.80
2014,06,13,15,41,24.80
2014,06,13,15,42,24.80
2014,06,13,15,43,24.80
2014,06,13,15,44,24.80
2014,06,13,15,45,24.80
2014,06,13,15,46,24.80
2014,06,13,15,47,24.90
2014,06,13,15,48,24.90
2014,06,13,15,49,25.00
2014,06,13,15,50,25.10
2014,06,13,15,51,25.00
2014,06,13,15,52,25.10
2014,06,13,15,53,25.10
2014,06,13,15,54,25.10
2014,06,13,15,55,25.10
2014,06,13,15,56,25.10
2014,06,13,15,57,25.10
2014,06,13,15,58,25.00
2014,06,13,15,59,24.90
2014,06,13,16,00,24.90
2014,06,13,16,01,24.90
2014,06,13,16,02,24.70
2014,06,13,16,03,24.70
2014,06,13,16,04,24.70
2014,06,13,16,05,24.70
2014,06,13,16,06,24.80
2014,06,13,16,07,24.90
2014,06,13,16,08,25.00
2014,06,13,16,09,25.10
2014,06,13,16,10,25.20
2014,06,13,16,11,25.30
2014,06,13,16,12,25.30
2014,06,13,16,13,25.40
2014,06,13,16,14,25.30
2014,06,13,16,15,25.30
2014,06,13,16,16,25.30
2014,06,13,16,17,25.20
2014,06,13,16,18,25.10
2014,06,13,16,19,25.10
2014,06,13,16,20,25.10
2014,06,13,16,21,25.10
2014,06,13,16,22,25.10
2014,06,13,16,23,25.20
2014,06,13,16,24,25.30
2014,06,13,16,25,25.40
2014,06,13,16,26,25.40
2014,06,13,16,27,25.40
2014,06,13,16,28,25.30
2014,06,13,16,29,25.30
2014,06,13,16,30,25.30
2014,06,13,16,31,25.30
2014,06,13,16,32,25.30
2014,06,13,16,33,25.40
2014,06,13,16,34,25.40
2014,06,13,16,35,25.30
2014,06,13,16,36,25.30
2014,06,13,16,37,25.30
2014,06,13,16,38,25.30
2014,06,13,16,39,25.30
2014,06,13,16,40,25.30
2014,06,13,16,41,25.40
2014,06,13,16,42,25.40
2014,06,13,16,43,25.40
2014,06,13,16,44,25.30
2014,06,13,16,45,25.20
2014,06,13,16,46,25.20
2014,06,13,16,47,25.10
2014,06,13,16,48,25.00
2014,06,13,16,49,25.00
2014,06,13,16,50,25.00
2014,06,13,16,51,24.90
2014,06,13,16,52,24.80
2014,06,13,16,53,24.80
2014,06,13,16,54,24.70
2014,06,13,16,55,24.70
2014,06,13,16,56,24.70
2014,06,13,16,57,24.60
2014,06,13,16,58,24.60
2014,06,13,16,59,24.60
2014,06,13,17,00,24.70
2014,06,13,17,01,24.70
2014,06,13,17,02,24.70
2014,06,13,17,03,24.60
2014,06,13,17,04,24.60
2014,06,13,17,05,24.50
2014,06,13,17,06,24.50
2014,06,13,17,07,24.50
2014,06,13,17,08,24.40
2014,06,13,17,09,24.40
2014,06,13,17,10,24.30
2014,06,13,17,11,24.10
2014,06,13,17,12,24.00
2014,06,13,17,13,23.90
2014,06,13,17,14,23.80
2014,06,13,17,15,23.80
2014,06,13,17,16,23.80
2014,06,13,17,17,23.80
2014,06,13,17,18,23.80
2014,06,13,17,19,23.80
2014,06,13,17,20,23.80
2014,06,13,17,21,23.90
2014,06,13,17,22,23.90
2014,06,13,17,23,23.90